Location: Angwan Shehu
(11.2514°N, 7.4613°E)
Time: 06:29:03
(UTC+00:00)

SR - Pass Details

Date: 17 April 2021
Orbit: 573 x 882 km, 66.7° (Epoch: 12 May)

Event Time Altitude Azimuth Distance (km) Brightness Sun altitude
Rises 05:29:59 0° 171° (S) 3,060 ? 2.1°
Reaches altitude 10° 05:32:42 10° 156° (SSE) 2,201 ? 2.8°
Maximum altitude 05:36:32 22° 106° (ESE) 1,615 ? 3.7°
Drops below altitude 10° 05:40:36 10° 57° (ENE) 2,357 ? 4.7°
Sets 05:43:37 0° 43° (NE) 3,340 ? 5.4°
